TimeMST,TemperatureF,Dew PointF,Humidity,Sea Level PressureIn,VisibilityMPH,Wind Direction,Wind SpeedMPH,Gust SpeedMPH,PrecipitationIn,Events,Conditions,WindDirDegrees,DateUTC
12:55 AM,75.9,33.8,22,29.77,10.0,SE,5.8,-,N/A,,Clear,130,2012-10-02 07:55:00
1:55 AM,73.0,34.7,25,29.78,10.0,SE,8.1,-,N/A,,Clear,130,2012-10-02 08:55:00
2:55 AM,72.1,34.0,25,29.78,10.0,SSE,5.8,-,N/A,,Clear,150,2012-10-02 09:55:00
3:55 AM,70.0,34.9,28,29.78,10.0,SE,6.9,-,N/A,,Clear,130,2012-10-02 10:55:00
4:55 AM,68.9,34.9,29,29.79,10.0,South,8.1,-,N/A,,Clear,170,2012-10-02 11:55:00
5:55 AM,69.4,34.5,28,29.80,10.0,SSE,13.8,-,N/A,,Clear,160,2012-10-02 12:55:00
6:55 AM,71.4,35.2,27,29.82,10.0,SSE,12.7,-,N/A,,Clear,150,2012-10-02 13:55:00
7:55 AM,74.3,36.9,26,29.84,10.0,SSE,9.2,-,N/A,,Clear,150,2012-10-02 14:55:00
8:55 AM,82.0,37.4,20,29.83,10.0,SE,8.1,-,N/A,,Clear,140,2012-10-02 15:55:00
9:55 AM,86.7,36.1,17,29.82,10.0,Calm,Calm,-,N/A,,Clear,0,2012-10-02 16:55:00
10:55 AM,90.1,35.1,14,29.81,10.0,South,4.6,-,N/A,,Clear,180,2012-10-02 17:55:00
11:55 AM,92.8,33.8,12,29.79,10.0,South,3.5,-,N/A,,Clear,190,2012-10-02 18:55:00
12:55 PM,95.7,32.0,11,29.75,10.0,NNW,5.8,-,N/A,,Clear,340,2012-10-02 19:55:00
1:55 PM,96.1,28.6,9,29.73,10.0,NW,12.7,-,N/A,,Clear,310,2012-10-02 20:55:00
2:55 PM,97.7,27.7,8,29.71,10.0,WNW,9.2,19.6,N/A,,Clear,290,2012-10-02 21:55:00
3:55 PM,97.2,27.1,8,29.70,10.0,WNW,12.7,-,N/A,,Clear,300,2012-10-02 22:55:00
4:55 PM,95.5,26.1,8,29.72,10.0,West,11.5,-,N/A,,Clear,260,2012-10-02 23:55:00
5:55 PM,92.8,26.6,9,29.73,10.0,WNW,8.1,-,N/A,,Clear,300,2012-10-03 00:55:00
6:55 PM,87.4,29.5,12,29.75,10.0,West,6.9,-,N/A,,Clear,280,2012-10-03 01:55:00
7:55 PM,85.5,29.8,13,29.75,10.0,West,5.8,-,N/A,,Clear,280,2012-10-03 02:55:00
8:55 PM,82.9,31.3,15,29.76,10.0,West,9.2,-,N/A,,Clear,280,2012-10-03 03:55:00
9:55 PM,78.8,30.9,17,29.78,10.0,SSE,4.6,-,N/A,,Clear,150,2012-10-03 04:55:00
10:55 PM,74.3,31.3,21,29.79,10.0,SE,5.8,-,N/A,,Clear,140,2012-10-03 05:55:00
11:55 PM,72.0,31.3,22,29.78,10.0,SE,8.1,-,N/A,,Clear,140,2012-10-03 06:55:00